Weather History for Tuscaloosa, AL

Change the Weather History Date:

Wednesday, October 12, 2011

  Actual Average Record
Temperature  
Mean Temperature 68 °F 66 °F  
Max Temperature 72 °F 78 °F 92 °F (1953)
Min Temperature 64 °F 53 °F 35 °F (1977)
Degree Days  
Heating Degree Days 0 3  
Month to date heating degree days 19 21  
Since 1 July heating degree days 20 28  
Cooling Degree Days 2    
Growing Degree Days 18 (Base 50)    
Moisture  
Dew Point 60 °F    
Average Humidity 79    
Maximum Humidity 87    
Minimum Humidity 70    
Precipitation  
Precipitation 0.03 in 0.11 in 1.71 in (1982)
Month to date precipitation 0.10 1.38  
Year to date precipitation 39.52 40.77  
Sea Level Pressure  
Sea Level Pressure 29.85 in    
Wind  
Wind Speed 2 mph (SE)    
Max Wind Speed 10 mph    
Max Gust Speed 14 mph    
Visibility 8 miles    
Events Rain    
T = Trace of Precipitation, MM = Missing Value Source: NWS Daily Summary

Daily Weather History Graph

Daily Weather History Graph

Search for Another Location

Airport:

Trip Planner

Search our weather history database for the weather conditions in past years. The results will help you decide how hot, cold, wet, or windy it might be!

Date:

Astronomy

Oct. 12, 2011 Rise Set
Actual Time 6:52 AM CDT 6:21 PM CDT
Civil Twilight 6:27 AM CDT 6:45 PM CDT
Nautical Twilight 5:58 AM CDT 7:14 PM CDT
Astronomical Twilight 5:30 AM CDT 7:43 PM CDT
Moon 6:29 PM CDT (10/12) 7:21 AM CDT (10/12)
Length of Visible Light 12h 18m
Length of Day
11h 28m
Full, 100% of the Moon is Illuminated
Oct 12
Full
Oct 19
Last Quarter
Oct 26
New
Nov 2
First Quarter
Nov 10
Full

Hourly Weather History & Observations

Time (CDT) Temp. Dew Point Humidity Pressure Visibility Wind Dir Wind Speed Gust Speed Precip Events Conditions
12:14 AM 64.4 °F 59.0 °F 83% 29.90 in 10.0 mi ENE 3.5 mph - N/A   Overcast
12:53 AM 64.9 °F 59.0 °F 81% 29.88 in 10.0 mi Calm Calm - N/A   Overcast
1:53 AM 64.9 °F 59.0 °F 81% 29.88 in 10.0 mi ENE 3.5 mph - N/A   Overcast
2:53 AM 64.9 °F 59.0 °F 81% 29.87 in 10.0 mi Calm Calm - N/A   Overcast
3:53 AM 64.9 °F 60.1 °F 84% 29.86 in 10.0 mi Calm Calm - N/A   Overcast
4:01 AM 64.4 °F 60.8 °F 88% 29.87 in 10.0 mi Calm Calm - N/A   Overcast
4:53 AM 64.0 °F 59.0 °F 84% 29.86 in 5.0 mi Calm Calm - N/A   Haze
5:10 AM 64.4 °F 60.8 °F 88% 29.87 in 8.0 mi Calm Calm - N/A   Overcast
5:33 AM 64.4 °F 60.8 °F 88% 29.87 in 7.0 mi Calm Calm - N/A   Overcast
5:45 AM 64.4 °F 60.8 °F 88% 29.87 in 6.0 mi Calm Calm - N/A   Haze
5:53 AM 64.0 °F 60.1 °F 87% 29.87 in 6.0 mi Calm Calm - N/A   Overcast
6:01 AM 64.4 °F 60.8 °F 88% 29.88 in 7.0 mi Calm Calm - N/A   Overcast
6:19 AM 64.4 °F 60.8 °F 88% 29.89 in 7.0 mi Calm Calm - N/A   Overcast
6:53 AM 64.0 °F 60.1 °F 87% 29.89 in 5.0 mi Calm Calm - 0.00 in   Overcast
7:39 AM 64.4 °F 60.8 °F 88% 29.88 in 2.5 mi Calm Calm - 0.01 in Rain Light Rain
7:53 AM 64.0 °F 61.0 °F 90% 29.88 in 2.5 mi Calm Calm - 0.01 in Rain Light Rain
8:00 AM 64.4 °F 60.8 °F 88% 29.89 in 3.0 mi Calm Calm - 0.00 in Rain Light Rain
8:13 AM 64.4 °F 60.8 °F 88% 29.89 in 2.0 mi Calm Calm - 0.00 in Rain Light Rain
8:36 AM 64.4 °F 60.8 °F 88% 29.89 in 1.5 mi Calm Calm - 0.01 in Rain Light Rain
8:50 AM 64.4 °F 60.8 °F 88% 29.89 in 2.5 mi Calm Calm - 0.02 in Rain Light Rain
8:53 AM 64.0 °F 60.1 °F 87% 29.89 in 3.0 mi Calm Calm - 0.02 in Rain Light Rain
9:03 AM 64.4 °F 60.8 °F 88% 29.89 in 4.0 mi Calm Calm - N/A   Overcast
9:29 AM 64.4 °F 60.8 °F 88% 29.90 in 2.0 mi Calm Calm - N/A   Overcast
9:43 AM 64.4 °F 60.8 °F 88% 29.90 in 3.0 mi Calm Calm - 0.00 in Rain Light Rain
9:53 AM 64.4 °F 60.8 °F 88% 29.89 in 4.0 mi Calm Calm - N/A   Overcast
10:23 AM 64.4 °F 60.8 °F 88% 29.89 in 7.0 mi Calm Calm - N/A   Overcast
10:53 AM 66.0 °F 61.0 °F 84% 29.89 in 9.0 mi SW 5.8 mph - N/A   Overcast
11:53 AM 69.1 °F 60.1 °F 73% 29.87 in 10.0 mi Calm Calm - N/A   Overcast
12:19 PM 69.8 °F 59.0 °F 68% 29.87 in 10.0 mi East 3.5 mph - N/A   Overcast
12:37 PM 68.0 °F 59.0 °F 73% 29.86 in 10.0 mi Calm Calm - N/A   Overcast
12:53 PM 68.0 °F 59.0 °F 73% 29.86 in 10.0 mi Calm Calm - N/A   Overcast
1:01 PM 69.8 °F 59.0 °F 68% 29.85 in 10.0 mi Calm Calm - N/A   Overcast
1:53 PM 69.8 °F 59.0 °F 68% 29.83 in 10.0 mi East 4.6 mph - N/A   Overcast
2:53 PM 70.0 °F 59.0 °F 68% 29.80 in 10.0 mi Calm Calm - N/A   Overcast
3:08 PM 71.6 °F 59.0 °F 64% 29.80 in 10.0 mi NE 3.5 mph - N/A   Overcast
3:53 PM 70.0 °F 60.1 °F 71% 29.80 in 10.0 mi Calm Calm - N/A   Overcast
4:15 PM 69.8 °F 60.8 °F 73% 29.80 in 10.0 mi SW 3.5 mph - N/A   Overcast
4:30 PM 69.8 °F 60.8 °F 73% 29.79 in 10.0 mi Calm Calm - N/A   Overcast
4:53 PM 70.0 °F 60.1 °F 71% 29.78 in 10.0 mi Calm Calm - N/A   Overcast
5:53 PM 69.1 °F 61.0 °F 75% 29.77 in 10.0 mi Calm Calm - N/A   Overcast
6:07 PM 68.0 °F 60.8 °F 78% 29.78 in 10.0 mi ENE 3.5 mph - N/A   Overcast
6:53 PM 68.0 °F 61.0 °F 78% 29.78 in 10.0 mi East 3.5 mph - N/A   Overcast
7:53 PM 66.9 °F 61.0 °F 81% 29.79 in 10.0 mi South 4.6 mph - N/A   Overcast
8:53 PM 66.9 °F 61.0 °F 81% 29.81 in 10.0 mi SSW 3.5 mph - N/A   Overcast
9:10 PM 66.2 °F 60.8 °F 83% 29.81 in 10.0 mi Calm Calm - N/A   Mostly Cloudy
9:53 PM 66.0 °F 61.0 °F 84% 29.81 in 10.0 mi South 3.5 mph - N/A   Mostly Cloudy
10:53 PM 66.9 °F 61.0 °F 81% 29.77 in 10.0 mi ESE 3.5 mph - 0.00 in Rain Light Rain
11:53 PM 66.0 °F 62.1 °F 87% 29.75 in 10.0 mi SSE 6.9 mph - 0.00 in   Mostly Cloudy